M I D A S
Marine Information and Data Acquisition System
Tripno 843 of the Zeeleeuw from 2005-01-28 07:43:36 to 2005-01-28 13:05:56
Back to CruiseResearch ActivitiesStationsMapUnderway DataData graphs

EquipmentUnitsComments
TimeDGPSUTC
LatitudeDGPSDM.mWGS84
LongitudeDGPSDM.mWGS84
SpeedMeteo Stationm/sRelative wind speed
DirectionMeteo StationdegRelative wind direction
TemperatureMeteo Stationdeg CelciusAir temperature
PressureMeteo StationPaAtmospheric pressure
HumidityMeteo Station%Relative humidity
Missing or incorrect values are displayed as -999
Metereological data collected by the RV Zeeleeuw from 2005-01-28 07:44:36 to 2005-01-28 13:14:41
Time Latitude Longitude Speed Direction Temperature Pressure Humidity
2005-01-28 07:45 51°13.606 2°56.054 1.5 233 6.2 101280 100
2005-01-28 07:46 51°13.576 2°56.111 0.8 282 6.1 101280 100
2005-01-28 07:47 51°13.54 2°56.176 2.2 256 6.1 101280 100
2005-01-28 07:48 51°13.537 2°56.232 4.5 258 6.1 101280 100
2005-01-28 07:49 51°13.541 2°56.23 3 321 6.1 101280 100
2005-01-28 07:50 51°13.541 2°56.225 3.6 336 6.1 101280 100
2005-01-28 07:51 51°13.539 2°56.225 4.3 27 6.1 101280 100
2005-01-28 07:52 51°13.52 2°56.249 3.8 27 6.1 101280 100
2005-01-28 07:53 51°13.522 2°56.244 4.1 51 6.1 101280 100
2005-01-28 07:54 51°13.53 2°56.232 5.2 53 6.1 101280 100
2005-01-28 07:55 51°13.536 2°56.214 3.8 50 6.1 101280 100
2005-01-28 07:56 51°13.54 2°56.193 3.4 81 6.1 101270 100
2005-01-28 07:57 51°13.547 2°56.157 2.8 35 6.1 101270 100
2005-01-28 07:58 51°13.563 2°56.108 4.2 28 6.1 101270 100
2005-01-28 07:59 51°13.589 2°56.043 5.8 37 6.1 101270 100
2005-01-28 08:00 51°13.627 2°55.963 5.3 8 6.1 101270 100
2005-01-28 08:01 51°13.672 2°55.859 4.9 30 6.1 101270 100
2005-01-28 08:02 51°13.733 2°55.731 8.6 39 6.1 101260 100
2005-01-28 08:03 51°13.83 2°55.628 9.9 24 6.1 101260 100
2005-01-28 08:04 51°13.961 2°55.533 9.5 10 6.1 101250 100
2005-01-28 08:05 51°14.103 2°55.432 11.1 19 6 101250 100
2005-01-28 08:06 51°14.243 2°55.287 10.4 30 6 101240 100
2005-01-28 08:07 51°14.354 2°55.071 12.7 40 6 101250 100
2005-01-28 08:08 51°14.481 2°54.833 13.4 23 6 101210 100
2005-01-28 08:09 51°14.65 2°54.627 14.3 19 6 101200 100
2005-01-28 08:10 51°14.837 2°54.459 16.8 18 6 101210 100
2005-01-28 08:11 51°15.015 2°54.297 15.2 18 6 101210 100
2005-01-28 08:12 51°15.195 2°54.13 14.1 14 6 101210 100
2005-01-28 08:13 51°15.382 2°53.965 16.1 14 6 101200 100
2005-01-28 08:14 51°15.572 2°53.79 13.6 15 6 101210 100
2005-01-28 08:15 51°15.756 2°53.615 16.8 15 6 101200 100
2005-01-28 08:16 51°15.942 2°53.445 15 15 6 101210 100
2005-01-28 08:17 51°16.133 2°53.3 13.9 17 6 101210 100
2005-01-28 08:18 51°16.327 2°53.148 15.2 14 6.1 101210 100
2005-01-28 08:19 51°16.518 2°52.999 15.7 12 6.1 101210 100
2005-01-28 08:20 51°16.711 2°52.853 16.3 12 6.1 101210 100
2005-01-28 08:21 51°16.9 2°52.71 16.4 16 6.1 101220 100
2005-01-28 08:22 51°17.078 2°52.545 15.5 16 6.1 101200 100
2005-01-28 08:23 51°17.249 2°52.365 17.7 20 6.2 101200 100
2005-01-28 08:24 51°17.419 2°52.168 16.1 20 6.2 101200 100
2005-01-28 08:25 51°17.581 2°51.95 14.8 26 6.2 101200 100
2005-01-28 08:26 51°17.72 2°51.69 13.4 26 6.2 101200 100
2005-01-28 08:27 51°17.855 2°51.425 14.8 26 6.3 101200 100
2005-01-28 08:28 51°17.997 2°51.15 14.9 26 6.3 101200 100
2005-01-28 08:29 51°18.131 2°50.871 15.7 29 6.3 101200 100
2005-01-28 08:30 51°18.255 2°50.577 16 25 6.3 101200 100
2005-01-28 08:31 51°18.375 2°50.294 14.8 28 6.3 101200 100
2005-01-28 08:32 51°18.498 2°50 15.7 31 6.3 101200 100
2005-01-28 08:33 51°18.62 2°49.717 16.2 28 6.3 101200 100
2005-01-28 08:34 51°18.746 2°49.433 15.7 29 6.4 101200 100
2005-01-28 08:35 51°18.871 2°49.147 15.3 28 6.3 101200 100
2005-01-28 08:36 51°19 2°48.858 16.4 29 6.4 101200 100
2005-01-28 08:37 51°19.123 2°48.574 16.5 32 6.4 101200 100
2005-01-28 08:38 51°19.245 2°48.29 14.3 29 6.4 101200 100
2005-01-28 08:39 51°19.37 2°47.996 16.5 32 6.4 101200 100
2005-01-28 08:40 51°19.493 2°47.707 14.5 39 6.4 101210 100
2005-01-28 08:41 51°19.602 2°47.387 15.3 44 6.4 101200 100
2005-01-28 08:42 51°19.682 2°47.05 15.9 43 6.4 101200 100
2005-01-28 08:43 51°19.763 2°46.708 14.6 39 6.4 101200 100
2005-01-28 08:44 51°19.842 2°46.371 14.3 44 6.5 101200 100
2005-01-28 08:45 51°19.924 2°46.033 14.8 44 6.5 101210 100
2005-01-28 08:46 51°20.007 2°45.697 14.4 38 6.5 101210 100
2005-01-28 08:47 51°20.091 2°45.353 14.9 44 6.4 101210 100
2005-01-28 08:48 51°20.163 2°45.013 14.2 54 6.5 101210 100
2005-01-28 08:49 51°20.196 2°44.635 14.5 54 6.5 101220 100
2005-01-28 08:50 51°20.225 2°44.254 14.4 53 6.5 101210 100
2005-01-28 08:51 51°20.257 2°43.884 12.8 54 6.5 101200 100
2005-01-28 08:52 51°20.287 2°43.504 14.8 52 6.5 101210 100
2005-01-28 08:53 51°20.319 2°43.134 13.2 55 6.5 101200 100
2005-01-28 08:54 51°20.353 2°42.764 13.2 52 6.5 101200 100
2005-01-28 08:55 51°20.387 2°42.389 14.8 58 6.5 101210 100
2005-01-28 08:56 51°20.417 2°42.019 14.8 50 6.5 101220 100
2005-01-28 08:57 51°20.454 2°41.647 14.8 51 6.5 101200 100
2005-01-28 08:58 51°20.49 2°41.27 15.1 54 6.6 101210 100
2005-01-28 08:59 51°20.52 2°40.9 14.9 56 6.6 101220 100
2005-01-28 09:00 51°20.553 2°40.525 15.6 48 6.6 101210 100
2005-01-28 09:01 51°20.586 2°40.147 15.2 54 6.6 101220 100
2005-01-28 09:02 51°20.619 2°39.773 14.7 52 6.7 101200 100
2005-01-28 09:03 51°20.652 2°39.405 14.5 57 6.7 101220 100
2005-01-28 09:04 51°20.679 2°39.032 14 55 6.8 101220 100
2005-01-28 09:05 51°20.712 2°38.661 13.1 52 6.8 101220 100
2005-01-28 09:06 51°20.743 2°38.287 15.7 54 6.8 101230 100
2005-01-28 09:07 51°20.776 2°37.918 15.7 59 6.8 101220 100
2005-01-28 09:08 51°20.809 2°37.539 16.2 53 6.9 101210 100
2005-01-28 09:09 51°20.838 2°37.173 15.1 54 6.9 101230 100
2005-01-28 09:10 51°20.871 2°36.796 15.8 51 7 101220 100
2005-01-28 09:11 51°20.908 2°36.414 14.7 55 7 101230 100
2005-01-28 09:12 51°20.94 2°36.037 14.3 51 7 101210 100
2005-01-28 09:13 51°20.971 2°35.649 15.2 52 7 101220 100
2005-01-28 09:14 51°21.004 2°35.269 15.8 53 7 101220 100
2005-01-28 09:15 51°21.034 2°34.884 15.4 56 7.1 101230 100
2005-01-28 09:16 51°21.065 2°34.499 14.6 53 7.1 101230 100
2005-01-28 09:17 51°21.097 2°34.113 13.5 55 7.1 101220 99
2005-01-28 09:18 51°21.127 2°33.737 14.4 53 7.1 101220 99
2005-01-28 09:19 51°21.231 2°33.429 19.2 18 7.1 101220 99
2005-01-28 09:20 51°21.41 2°33.318 16.5 13 7.1 101260 98
2005-01-28 09:21 51°21.592 2°33.257 17.2 7 7.2 101260 98
2005-01-28 09:22 51°21.778 2°33.2 15.6 7 7.1 101250 99
2005-01-28 09:23 51°21.97 2°33.14 16.3 9 7 101250 99
2005-01-28 09:24 51°22.16 2°33.074 16.9 8 7 101260 100
2005-01-28 09:25 51°22.341 2°33.009 16.2 4 6.9 101250 100
2005-01-28 09:26 51°22.534 2°32.941 20.1 4 6.9 101250 100
2005-01-28 09:27 51°22.678 2°32.729 17.6 40 6.9 101220 100
2005-01-28 09:28 51°22.729 2°32.365 14.9 66 6.9 101220 100
2005-01-28 09:29 51°22.707 2°31.979 14.9 72 6.9 101220 100
2005-01-28 09:30 51°22.682 2°31.591 16.2 67 7 101220 100
2005-01-28 09:31 51°22.66 2°31.203 15.4 64 7 101230 100
2005-01-28 09:32 51°22.642 2°30.81 15.5 66 7 101220 100
2005-01-28 09:33 51°22.623 2°30.423 14.2 60 7 101210 100
2005-01-28 09:34 51°22.608 2°30.033 13.4 56 6.9 101210 100
2005-01-28 09:35 51°22.591 2°29.64 15.6 68 6.9 101230 100
2005-01-28 09:36 51°22.564 2°29.251 12.1 67 6.9 101230 100
2005-01-28 09:37 51°22.531 2°28.856 13.1 70 6.9 101240 100
2005-01-28 09:38 51°22.498 2°28.455 12.6 70 6.9 101240 100
2005-01-28 09:39 51°22.465 2°28.052 14.3 64 6.9 101240 100
2005-01-28 09:40 51°22.446 2°27.654 14.3 64 6.9 101230 100
2005-01-28 09:41 51°22.434 2°27.256 15.4 65 6.9 101230 100
2005-01-28 09:42 51°22.435 2°26.864 15.7 64 7 101220 100
2005-01-28 09:43 51°22.436 2°26.482 17.5 60 7 101220 100
2005-01-28 09:44 51°22.472 2°26.105 16.9 46 7 101230 100
2005-01-28 09:45 51°22.566 2°25.789 17.9 35 7 101220 100
2005-01-28 09:46 51°22.706 2°25.542 16.7 24 7 101240 100
2005-01-28 09:47 51°22.874 2°25.362 20.1 14 7.1 101240 100
2005-01-28 09:48 51°23.058 2°25.246 20.1 7 7 101250 99
2005-01-28 09:49 51°23.242 2°25.223 18.6 2 7 101270 100
2005-01-28 09:50 51°23.422 2°25.275 15.8 356 7.1 101260 100
2005-01-28 09:51 51°23.595 2°25.316 17.7 357 7 101260 100
2005-01-28 09:52 51°23.777 2°25.348 17.9 -999 7 101260 100
2005-01-28 09:53 51°23.959 2°25.376 17.2 359 7 101260 100
2005-01-28 09:54 51°24.139 2°25.408 18.5 4 7 101270 100
2005-01-28 09:55 51°24.31 2°25.429 19.4 3 7 101260 100
2005-01-28 09:56 51°24.481 2°25.449 15 -999 7 101260 100
2005-01-28 09:57 51°24.658 2°25.468 18.4 357 7 101260 100
2005-01-28 09:58 51°24.827 2°25.503 16.5 357 7 101250 100
2005-01-28 09:59 51°24.998 2°25.543 15.6 360 7 101260 100
2005-01-28 10:00 51°25.17 2°25.579 16.6 1 7 101280 100
2005-01-28 10:01 51°25.341 2°25.624 16.8 352 6.9 101250 100
2005-01-28 10:02 51°25.518 2°25.669 18 359 6.9 101260 100
2005-01-28 10:03 51°25.696 2°25.709 17.5 357 6.8 101260 100
2005-01-28 10:04 51°25.875 2°25.762 18.8 359 6.9 101250 100
2005-01-28 10:05 51°26.054 2°25.817 17.7 351 6.9 101250 100
2005-01-28 10:06 51°26.231 2°25.873 20.6 354 6.9 101250 100
2005-01-28 10:07 51°26.412 2°25.925 18.5 357 6.9 101240 100
2005-01-28 10:08 51°26.578 2°25.985 21.1 355 6.8 101240 100
2005-01-28 10:09 51°26.756 2°26.039 19 358 6.8 101240 100
2005-01-28 10:10 51°26.934 2°26.094 18.6 354 6.8 101240 100
2005-01-28 10:11 51°27.11 2°26.156 16.6 357 6.8 101250 100
2005-01-28 10:12 51°27.286 2°26.213 17.4 357 6.8 101250 100
2005-01-28 10:13 51°27.467 2°26.273 17.6 353 6.8 101240 100
2005-01-28 10:14 51°27.643 2°26.333 17.9 353 6.8 101230 100
2005-01-28 10:15 51°27.821 2°26.393 20.8 357 6.8 101230 100
2005-01-28 10:16 51°27.997 2°26.456 16.6 2 6.8 101240 100
2005-01-28 10:17 51°28.167 2°26.514 20 355 6.8 101240 100
2005-01-28 10:18 51°28.341 2°26.572 21.7 1 6.8 101240 100
2005-01-28 10:19 51°28.516 2°26.635 16.9 357 6.8 101240 100
2005-01-28 10:20 51°28.693 2°26.693 17.1 358 6.8 101250 100
2005-01-28 10:21 51°28.793 2°26.72 11.3 -999 6.8 101310 100
2005-01-28 10:22 51°28.79 2°26.711 13 342 6.8 101310 100
2005-01-28 10:23 51°28.76 2°26.696 11.2 312 6.8 101310 100
2005-01-28 10:24 51°28.724 2°26.671 14.2 279 6.8 101300 100
2005-01-28 10:25 51°28.689 2°26.645 8 255 6.8 101320 100
2005-01-28 10:26 51°28.654 2°26.62 10.2 255 6.8 101320 100
2005-01-28 10:27 51°28.617 2°26.597 11.9 259 6.8 101300 100
2005-01-28 10:28 51°28.581 2°26.581 13.5 270 6.8 101320 100
2005-01-28 10:29 51°28.559 2°26.627 14.7 320 6.8 101290 100
2005-01-28 10:30 51°28.602 2°26.653 13.2 15 6.8 101300 100
2005-01-28 10:31 51°28.735 2°26.571 18.1 12 6.8 101270 100
2005-01-28 10:32 51°28.906 2°26.488 18.3 17 6.8 101240 100
2005-01-28 10:33 51°29.08 2°26.409 20.2 11 6.9 101260 100
2005-01-28 10:34 51°29.252 2°26.337 20.5 16 6.9 101250 100
2005-01-28 10:35 51°29.426 2°26.261 19.3 14 6.8 101260 100
2005-01-28 10:36 51°29.606 2°26.184 18.4 16 6.9 101250 100
2005-01-28 10:37 51°29.772 2°26.106 19.5 13 6.8 101270 100
2005-01-28 10:38 51°29.952 2°26.027 19.8 14 6.8 101260 100
2005-01-28 10:39 51°30.131 2°25.949 20.4 12 6.7 101260 100
2005-01-28 10:40 51°30.308 2°25.873 22.7 10 6.7 101270 100
2005-01-28 10:41 51°30.467 2°25.794 17.5 11 6.6 101260 100
2005-01-28 10:42 51°30.641 2°25.71 20 15 6.6 101250 100
2005-01-28 10:43 51°30.81 2°25.626 17.5 10 6.6 101260 100
2005-01-28 10:44 51°30.983 2°25.543 15.9 12 6.7 101260 100
2005-01-28 10:45 51°31.159 2°25.464 19 14 6.7 101260 100
2005-01-28 10:46 51°31.335 2°25.381 19.3 13 6.7 101270 100
2005-01-28 10:47 51°31.487 2°25.305 18.8 14 6.6 101260 100
2005-01-28 10:48 51°31.665 2°25.225 16.1 9 6.6 101260 100
2005-01-28 10:49 51°31.848 2°25.164 16.8 7 6.6 101270 100
2005-01-28 10:50 51°32.027 2°25.135 15.2 1 6.6 101260 100
2005-01-28 10:51 51°32.197 2°25.208 20.9 347 6.7 101260 100
2005-01-28 10:52 51°32.323 2°25.399 17.3 336 6.7 101250 100
2005-01-28 10:53 51°32.44 2°25.614 17.9 331 6.7 101260 100
2005-01-28 10:54 51°32.559 2°25.846 16.9 335 6.7 101240 100
2005-01-28 10:55 51°32.674 2°26.085 17.2 333 6.7 101240 100
2005-01-28 10:56 51°32.773 2°26.332 19.4 323 6.7 101250 100
2005-01-28 10:57 51°32.846 2°26.612 16.7 319 6.7 101210 100
2005-01-28 10:58 51°32.883 2°26.918 17 316 6.7 101230 100
2005-01-28 10:59 51°32.923 2°27.22 20.3 42 6.6 101240 100
2005-01-28 11:00 51°32.974 2°27.524 19.2 319 6.6 101240 100
2005-01-28 11:01 51°33.023 2°27.825 17 324 6.6 101220 100
2005-01-28 11:02 51°33.073 2°28.12 17.7 315 6.6 101230 100
2005-01-28 11:03 51°33.123 2°28.423 17.9 229 6.6 101230 100
2005-01-28 11:04 51°33.166 2°28.727 18.5 316 6.6 101240 100
2005-01-28 11:05 51°33.204 2°29.03 17.9 321 6.6 101260 100
2005-01-28 11:06 51°33.242 2°29.337 18.1 325 6.6 101230 100
2005-01-28 11:07 51°33.28 2°29.643 19.1 227 6.6 101220 100
2005-01-28 11:08 51°33.313 2°29.939 16.4 320 6.6 101230 100
2005-01-28 11:09 51°33.358 2°30.242 18.9 317 6.5 101230 100
2005-01-28 11:10 51°33.4 2°30.549 17.9 321 6.6 101240 100
2005-01-28 11:11 51°33.441 2°30.851 18.2 321 6.6 101230 100
2005-01-28 11:12 51°33.478 2°31.152 18 319 6.5 101220 100
2005-01-28 11:13 51°33.52 2°31.457 16.4 42 6.5 101210 100
2005-01-28 11:14 51°33.523 2°31.774 13.6 300 6.6 101230 100
2005-01-28 11:15 51°33.401 2°32.052 9.9 264 6.6 101250 100
2005-01-28 11:16 51°33.198 2°32.227 6 247 6.6 101290 100
2005-01-28 11:17 51°32.968 2°32.307 5.7 212 6.6 101280 100
2005-01-28 11:18 51°32.725 2°32.361 4.9 219 6.6 101290 100
2005-01-28 11:19 51°32.49 2°32.427 4.7 225 6.6 101280 100
2005-01-28 11:20 51°32.254 2°32.489 4.6 227 6.6 101280 100
2005-01-28 11:21 51°32.016 2°32.559 9.1 226 6.6 101280 100
2005-01-28 11:22 51°31.779 2°32.631 8.7 246 6.6 101280 100
2005-01-28 11:23 51°31.542 2°32.704 3.8 241 6.6 101270 100
2005-01-28 11:24 51°31.31 2°32.782 3.9 253 6.6 101280 100
2005-01-28 11:25 51°31.076 2°32.862 5.7 229 6.6 101270 100
2005-01-28 11:26 51°30.844 2°32.951 6.5 240 6.6 101270 100
2005-01-28 11:27 51°30.611 2°33.035 6 243 6.5 101270 100
2005-01-28 11:28 51°30.375 2°33.104 5.1 232 6.6 101280 100
2005-01-28 11:29 51°30.145 2°33.19 3.8 255 6.5 101270 100
2005-01-28 11:30 51°29.919 2°33.277 6.1 243 6.6 101280 100
2005-01-28 11:31 51°29.703 2°33.404 6.2 257 6.6 101270 100
2005-01-28 11:32 51°29.496 2°33.594 11.9 266 6.6 101260 100
2005-01-28 11:33 51°29.307 2°33.795 7.4 258 6.6 101260 100
2005-01-28 11:34 51°29.112 2°34.001 8.1 266 6.6 101270 100
2005-01-28 11:35 51°28.921 2°34.223 10.7 274 6.6 101260 100
2005-01-28 11:36 51°28.739 2°34.451 9 278 6.6 101260 100
2005-01-28 11:37 51°28.556 2°34.677 11.7 270 6.6 101270 100
2005-01-28 11:38 51°28.37 2°34.908 8.6 279 6.6 101270 100
2005-01-28 11:39 51°28.191 2°35.133 5.9 261 6.6 101250 100
2005-01-28 11:40 51°28.008 2°35.358 7.4 279 6.6 101260 100
2005-01-28 11:41 51°27.825 2°35.584 7.6 270 6.6 101250 100
2005-01-28 11:42 51°27.643 2°35.806 9.8 263 6.7 101250 100
2005-01-28 11:43 51°27.46 2°36.028 7.7 265 6.7 101250 100
2005-01-28 11:44 51°27.283 2°36.255 7.5 277 6.7 101250 100
2005-01-28 11:45 51°27.102 2°36.496 9.7 284 6.7 101250 100
2005-01-28 11:46 51°26.926 2°36.737 4.3 259 6.7 101260 100
2005-01-28 11:47 51°26.746 2°36.972 7.5 283 6.7 101260 100
2005-01-28 11:48 51°26.573 2°37.212 10.2 266 6.7 101250 100
2005-01-28 11:49 51°26.403 2°37.449 9.7 281 6.7 101260 100
2005-01-28 11:50 51°26.235 2°37.687 11.3 265 6.7 101240 100
2005-01-28 11:51 51°26.073 2°37.949 12 280 6.6 101240 100
2005-01-28 11:52 51°25.912 2°38.212 10 280 6.6 101240 100
2005-01-28 11:53 51°25.755 2°38.473 11.6 285 6.7 101230 100
2005-01-28 11:54 51°25.619 2°38.761 9.8 289 6.6 101230 100
2005-01-28 11:55 51°25.479 2°39.037 8.7 286 6.6 101240 100
2005-01-28 11:56 51°25.348 2°39.32 10.4 295 6.6 101220 100
2005-01-28 11:57 51°25.219 2°39.61 12.7 291 6.6 101230 100
2005-01-28 11:58 51°25.088 2°39.894 11.3 289 6.6 101250 100
2005-01-28 11:59 51°24.948 2°40.166 9.8 274 6.6 101230 100
2005-01-28 12:00 51°24.796 2°40.436 6.5 290 6.6 101240 100
2005-01-28 12:01 51°24.652 2°40.706 10.3 293 6.6 101210 100
2005-01-28 12:02 51°24.504 2°40.974 8.3 282 6.6 101220 100
2005-01-28 12:03 51°24.351 2°41.241 9.5 277 6.6 101220 100
2005-01-28 12:04 51°24.198 2°41.512 9.9 275 6.6 101220 100
2005-01-28 12:05 51°24.04 2°41.776 9.8 286 6.6 101210 100
2005-01-28 12:06 51°23.888 2°42.037 11.1 272 6.6 101220 100
2005-01-28 12:07 51°23.733 2°42.313 10.4 270 6.6 101230 100
2005-01-28 12:08 51°23.583 2°42.584 7.8 276 6.6 101220 100
2005-01-28 12:09 51°23.428 2°42.851 8 295 6.6 101220 100
2005-01-28 12:10 51°23.23 2°43.01 4 226 6.6 101230 100
2005-01-28 12:11 51°23 2°43.025 2.3 198 6.5 101240 100
2005-01-28 12:12 51°22.768 2°43.044 2.7 219 6.6 101250 100
2005-01-28 12:13 51°22.537 2°43.068 4.7 226 6.6 101240 100
2005-01-28 12:14 51°22.302 2°43.094 3.8 216 6.6 101240 100
2005-01-28 12:15 51°22.068 2°43.12 5.3 231 6.6 101250 100
2005-01-28 12:16 51°21.839 2°43.159 2.9 262 6.5 101240 100
2005-01-28 12:17 51°21.609 2°43.218 2.9 240 6.5 101250 100
2005-01-28 12:18 51°21.371 2°43.277 3.2 257 6.5 101250 100
2005-01-28 12:19 51°21.168 2°43.46 8.7 287 6.5 101230 100
2005-01-28 12:20 51°20.978 2°43.676 7.2 303 6.5 101240 100
2005-01-28 12:21 51°20.8 2°43.916 9 323 6.4 101240 100
2005-01-28 12:22 51°20.651 2°44.186 8.6 319 6.3 101230 100
2005-01-28 12:23 51°20.529 2°44.501 8.9 331 6.2 101210 100
2005-01-28 12:24 51°20.41 2°44.808 10.9 336 6.1 101210 100
2005-01-28 12:25 51°20.292 2°45.109 8.8 336 6.1 101230 100
2005-01-28 12:26 51°20.176 2°45.423 9.4 343 6 101220 100
2005-01-28 12:27 51°20.066 2°45.734 8.3 337 6 101220 100
2005-01-28 12:28 51°19.952 2°46.043 8.5 336 5.9 101220 100
2005-01-28 12:29 51°19.837 2°46.356 9 334 5.9 101220 100
2005-01-28 12:30 51°19.713 2°46.669 7.6 338 5.9 101240 100
2005-01-28 12:31 51°19.597 2°46.976 9.4 332 5.8 101240 100
2005-01-28 12:32 51°19.485 2°47.278 9 328 5.8 101240 100
2005-01-28 12:33 51°19.362 2°47.586 9.3 340 5.8 101220 100
2005-01-28 12:34 51°19.25 2°47.89 9.3 334 5.7 101230 100
2005-01-28 12:35 51°19.134 2°48.202 9.1 339 5.7 101230 100
2005-01-28 12:36 51°19.023 2°48.521 9.6 332 5.7 101220 100
2005-01-28 12:37 51°18.916 2°48.837 8.3 332 5.7 101230 100
2005-01-28 12:38 51°18.809 2°49.159 9.8 334 5.7 101220 100
2005-01-28 12:39 51°18.707 2°49.486 10.1 330 5.7 101220 100
2005-01-28 12:40 51°18.6 2°49.823 10.3 324 5.6 101230 100
2005-01-28 12:41 51°18.493 2°50.148 7.8 339 5.6 101220 100
2005-01-28 12:42 51°18.387 2°50.475 8.8 342 5.6 101230 100
2005-01-28 12:43 51°18.278 2°50.801 8.7 338 5.6 101220 100
2005-01-28 12:44 51°18.17 2°51.122 7.8 342 5.6 101230 100
2005-01-28 12:45 51°18.063 2°51.448 8.1 348 5.6 101230 100
2005-01-28 12:46 51°17.957 2°51.771 8 339 5.5 101260 100
2005-01-28 12:47 51°17.775 2°51.982 5.8 346 5.5 101240 100
2005-01-28 12:48 51°17.572 2°52.125 5.5 343 5.5 101240 100
2005-01-28 12:49 51°17.361 2°52.284 6.1 350 5.4 101230 100
2005-01-28 12:50 51°17.163 2°52.466 6.7 357 5.4 101230 100
2005-01-28 12:51 51°16.954 2°52.639 5.6 356 5.3 101230 100
2005-01-28 12:52 51°16.75 2°52.797 5.9 360 5.3 101230 100
2005-01-28 12:53 51°16.543 2°52.954 5.8 357 5.3 101220 100
2005-01-28 12:54 51°16.339 2°53.101 5.6 360 5.3 101220 100
2005-01-28 12:55 51°16.132 2°53.25 5.6 2 5.2 101220 100
2005-01-28 12:56 51°15.925 2°53.396 5.4 357 5.2 101210 100
2005-01-28 12:57 51°15.722 2°53.541 4.8 359 5.2 101210 100
2005-01-28 12:58 51°15.519 2°53.691 4.9 358 5.2 101210 100
2005-01-28 12:59 51°15.315 2°53.843 4.7 355 5.2 101220 100
2005-01-28 13:00 51°15.112 2°53.985 4.9 358 5.2 101220 100
2005-01-28 13:01 51°14.923 2°54.15 5.5 355 5.2 101220 100
2005-01-28 13:02 51°14.744 2°54.358 6.2 351 5.1 101220 100
2005-01-28 13:03 51°14.586 2°54.595 6.3 348 5.1 101220 100
2005-01-28 13:04 51°14.451 2°54.877 6.6 348 5.1 101220 100
2005-01-28 13:05 51°14.322 2°55.13 4.9 3 5.1 101220 100
2005-01-28 13:06 51°14.21 2°55.338 4.1 3 5.1 101230 100
2005-01-28 13:07 51°14.082 2°55.454 3.6 357 5.1 101230 100
2005-01-28 13:08 51°13.947 2°55.551 3.6 359 5.1 101230 100
2005-01-28 13:09 51°13.819 2°55.649 2.9 356 5.2 101240 100
2005-01-28 13:10 51°13.725 2°55.768 3.2 351 5.2 101240 100
2005-01-28 13:11 51°13.664 2°55.897 2.9 349 5.3 101240 100
2005-01-28 13:12 51°13.624 2°56.007 2.1 337 5.3 101250 100
2005-01-28 13:13 51°13.598 2°56.092 1.6 41 5.4 101250 100